This is the latest recevied weather packets stored in our database for station/object CE4JVU-10. If no packets are shown the sender has not sent any weather packets the latest 10 day(s).
| Time | Temp. | Humidity | Pressure | Rain* | Wind** | Luminosity | Snow |
|---|---|---|---|---|---|---|---|
| 1778111721 | 18.89° C | 64% | 985.5 hPa | - | - | - | - |
| 1778109921 | 18.89° C | 65% | 985.2 hPa | - | - | - | - |
| 1778108120 | 18.89° C | 65% | 985.3 hPa | - | - | - | - |
| 1778106320 | 18.89° C | 65% | 984.9 hPa | - | - | - | - |
| 1778104520 | 18.33° C | 64% | 984.4 hPa | - | - | - | - |
| 1778102720 | 18.33° C | 64% | 984 hPa | - | - | - | - |
| 1778100920 | 17.78° C | 64% | 983.6 hPa | - | - | - | - |
| 1778099120 | 17.78° C | 64% | 983.4 hPa | - | - | - | - |
| 1778097320 | 17.78° C | 64% | 983.3 hPa | - | - | - | - |
| 1778095520 | 17.22° C | 66% | 983.1 hPa | - | - | - | - |
| 1778093719 | 17.78° C | 64% | 982.7 hPa | - | - | - | - |
| 1778091919 | 17.78° C | 64% | 982.5 hPa | - | - | - | - |
| 1778090119 | 17.78° C | 64% | 982.3 hPa | - | - | - | - |
| 1778088319 | 17.78° C | 65% | 982.2 hPa | - | - | - | - |
| 1778086519 | 16.67° C | 67% | 981.8 hPa | - | - | - | - |
| 1778084720 | 16.67° C | 68% | 982 hPa | - | - | - | - |
| 1778082920 | 17.22° C | 65% | 981.7 hPa | - | - | - | - |
| 1778081120 | 18.89° C | 62% | 981.3 hPa | - | - | - | - |
| 1778079320 | 18.89° C | 62% | 980.7 hPa | - | - | - | - |
| 1778077520 | 18.33° C | 61% | 979.6 hPa | - | - | - | - |
| 1778075720 | 18.33° C | 64% | 979.4 hPa | - | - | - | - |
| 1778073920 | 17.78° C | 62% | 980.1 hPa | - | - | - | - |
| 1778072119 | 17.78° C | 64% | 979.8 hPa | - | - | - | - |
| 1778070319 | 17.22° C | 63% | 979.9 hPa | - | - | - | - |
| 1778068519 | 16.67° C | 64% | 979.7 hPa | - | - | - | - |
* Rain since midnight (hover to see other rain measurements)
** Current wind speed in m/s (hover to see current wind gust speed)